Date String (YYYY-MM-DD hh:mm:ss) UTC,Instrument flags,Ambient pressure (hPa),Sample flow (lpm),Bypass flow (lpm),Sample temperature (°C),Ambient temperature (°C),ASC tube jacket temperature (°C),LED temperature (°C),Box temperature (°C),Sample RH (%),Span deviation,Mass concentration (μg/m³),Mass concentration (μg/m³),Mass concentration (μg/m³)
DateTimeUTC,F1_M11,P_M11,Q1_M11,Q2_M11,T1_M11,T2_M11,T3_M11,T4_M11,T5_M11,U1_M11,ZSPAN_M11,X2_M11,X0_M11,X1_M11
2023-02-16 05:00:00,,0825.3,4.97,0.00,22.7,22.0,00.0,31.5,24.5,07.7,0000.0,0003.06,0003.91,0002.76
2023-02-16 05:01:00,,0825.4,5.08,0.00,22.8,23.1,00.0,31.5,24.8,07.6,0000.0,0003.07,0003.92,0002.75
2023-02-16 05:02:00,,0825.4,5.04,0.00,22.9,23.2,00.0,31.5,24.9,07.6,0000.0,0003.08,0003.86,0002.76
2023-02-16 05:03:00,,0825.4,5.00,0.00,22.9,22.6,00.0,31.6,24.8,07.6,0000.0,0003.10,0003.85,0002.78
2023-02-16 05:04:00,,0825.4,4.98,0.00,22.9,22.1,00.0,31.6,24.7,07.6,0000.0,0003.13,0003.88,0002.81
2023-02-16 05:05:00,,0825.3,5.02,0.00,22.8,21.8,00.0,31.6,24.6,07.6,0000.0,0003.14,0003.86,0002.84
2023-02-16 05:06:00,,0825.3,5.00,0.00,22.8,21.5,00.0,31.6,24.5,07.6,0000.0,0003.16,0003.85,0002.88
2023-02-16 05:07:00,,0825.3,4.98,0.00,22.8,21.3,00.0,31.6,24.5,07.6,0000.0,0003.18,0003.84,0002.92
2023-02-16 05:08:00,,0825.3,5.00,0.00,22.7,21.1,00.0,31.6,24.4,07.7,0000.0,0003.19,0003.90,0002.95
2023-02-16 05:09:00,,0825.3,4.98,0.00,22.7,21.0,00.0,31.6,24.4,07.7,0000.0,0003.24,0004.10,0002.98
2023-02-16 05:10:00,,0825.4,5.00,0.00,22.7,20.9,00.0,31.6,24.3,07.7,0000.0,0003.27,0004.15,0003.01
2023-02-16 05:11:00,,0825.3,5.01,0.00,22.6,20.8,00.0,31.6,24.3,07.7,0000.0,0003.27,0004.11,0003.03
2023-02-16 05:12:00,,0825.4,4.99,0.00,22.6,21.2,00.0,31.5,24.3,07.7,0000.0,0003.28,0004.12,0003.07
2023-02-16 05:13:00,,0825.4,4.99,0.00,22.7,22.3,00.0,31.5,24.6,07.7,0000.0,0003.27,0004.10,0003.07
2023-02-16 05:14:00,,0825.4,4.90,0.00,22.8,23.2,00.0,31.5,24.9,07.7,0000.0,0003.27,0005.17,0003.08
2023-02-16 05:15:00,,0825.4,4.99,0.00,22.9,23.0,00.0,31.6,24.9,07.6,0000.0,0003.27,0005.15,0003.08
2023-02-16 05:16:00,,0825.4,4.99,0.00,22.9,22.5,00.0,31.6,24.8,07.6,0000.0,0003.27,0005.17,0003.07
2023-02-16 05:17:00,,0825.4,4.95,0.00,22.9,22.1,00.0,31.6,24.7,07.6,0000.0,0003.24,0005.14,0003.06
2023-02-16 05:18:00,,0825.4,5.00,0.00,22.8,21.8,00.0,31.6,24.6,07.6,0000.0,0003.23,0005.11,0003.04
2023-02-16 05:19:00,,0825.4,4.99,0.00,22.8,21.5,00.0,31.6,24.5,07.6,0000.0,0003.22,0005.07,0003.02
2023-02-16 05:20:00,,0825.4,5.00,0.00,22.8,21.2,00.0,31.6,24.5,07.7,0000.0,0003.16,0004.87,0002.96
2023-02-16 05:21:00,,0825.4,5.02,0.00,22.7,21.1,00.0,31.6,24.4,07.7,0000.0,0003.14,0004.86,0002.90
2023-02-16 05:22:00,,0825.4,5.00,0.00,22.7,21.0,00.0,31.6,24.4,07.7,0000.0,0003.11,0004.88,0002.84
2023-02-16 05:23:00,,0825.4,5.00,0.00,22.7,20.9,00.0,31.6,24.4,07.7,0000.0,0003.07,0004.85,0002.80
2023-02-16 05:24:00,,0825.4,5.02,0.00,22.6,21.0,00.0,31.6,24.3,07.7,0000.0,0003.07,0004.94,0002.78
2023-02-16 05:25:00,,0825.5,4.98,0.00,22.7,22.0,00.0,31.5,24.6,07.7,0000.0,0003.05,0004.01,0002.75
2023-02-16 05:26:00,,0825.4,4.95,0.00,22.8,22.9,00.0,31.5,24.8,07.6,0000.0,0003.03,0003.90,0002.71
2023-02-16 05:27:00,,0825.4,4.97,0.00,22.9,23.0,00.0,31.6,24.9,07.6,0000.0,0003.01,0003.92,0002.68
2023-02-16 05:28:00,,0825.4,4.98,0.00,22.9,22.5,00.0,31.6,24.8,07.6,0000.0,0002.98,0004.09,0002.63
2023-02-16 05:29:00,,0825.4,5.01,0.00,22.9,22.1,00.0,31.6,24.7,07.6,0000.0,0002.92,0005.30,0002.57
2023-02-16 05:30:00,,0825.4,4.99,0.00,22.8,21.7,00.0,31.6,24.6,07.6,0000.0,0002.85,0005.26,0002.49
2023-02-16 05:31:00,,0825.5,5.01,0.00,22.8,21.4,00.0,31.6,24.5,07.6,0000.0,0002.80,0005.20,0002.44
2023-02-16 05:32:00,,0825.5,5.00,0.00,22.8,21.2,00.0,31.6,24.4,07.6,0000.0,0002.74,0005.10,0002.40
2023-02-16 05:33:00,,0825.5,5.00,0.00,22.7,21.0,00.0,31.6,24.4,07.6,0000.0,0002.73,0005.08,0002.38
2023-02-16 05:34:00,,0825.5,4.99,0.00,22.7,20.9,00.0,31.6,24.3,07.6,0000.0,0002.71,0005.11,0002.34
2023-02-16 05:35:00,,0825.6,5.00,0.00,22.6,20.7,00.0,31.6,24.3,07.6,0000.0,0002.63,0005.03,0002.27
2023-02-16 05:36:00,,0825.6,5.03,0.00,22.6,21.1,00.0,31.6,24.3,07.6,0000.0,0002.57,0004.88,0002.21
2023-02-16 05:37:00,,0825.6,4.99,0.00,22.7,22.1,00.0,31.5,24.6,07.6,0000.0,0002.50,0004.83,0002.13
2023-02-16 05:38:00,,0825.6,4.98,0.00,22.8,23.0,00.0,31.5,24.8,07.6,0000.0,0002.45,0004.80,0002.08
2023-02-16 05:39:00,,0825.6,5.00,0.00,22.9,22.8,00.0,31.6,24.8,07.6,0000.0,0002.40,0004.71,0002.03
2023-02-16 05:40:00,,0825.6,5.01,0.00,22.9,22.3,00.0,31.6,24.7,07.6,0000.0,0002.39,0003.30,0002.02
2023-02-16 05:41:00,,0825.6,4.98,0.00,22.8,21.9,00.0,31.6,24.6,07.6,0000.0,0002.42,0003.33,0002.02
2023-02-16 05:42:00,,0825.6,4.98,0.00,22.8,21.5,00.0,31.6,24.5,07.6,0000.0,0002.46,0003.39,0002.03
2023-02-16 05:43:00,,0825.6,4.96,0.00,22.8,21.3,00.0,31.6,24.4,07.6,0000.0,0002.44,0003.36,0002.04
2023-02-16 05:44:00,,0825.6,4.98,0.00,22.7,21.1,00.0,31.6,24.4,07.6,0000.0,0002.39,0003.24,0002.03
2023-02-16 05:45:00,,0825.6,5.00,0.00,22.7,20.9,00.0,31.6,24.3,07.6,0000.0,0002.36,0003.16,0002.03
2023-02-16 05:46:00,,0825.6,5.00,0.00,22.6,20.8,00.0,31.6,24.3,07.6,0000.0,0002.37,0003.14,0002.04
2023-02-16 05:47:00,,0825.6,5.02,0.00,22.6,21.0,00.0,31.5,24.3,07.6,0000.0,0002.40,0003.22,0002.07
2023-02-16 05:48:00,,0825.6,5.00,0.00,22.7,22.0,00.0,31.5,24.5,07.6,0000.0,0002.46,0003.30,0002.11
2023-02-16 05:49:00,,0825.6,4.91,0.00,22.8,23.0,00.0,31.5,24.8,07.6,0000.0,0002.48,0003.28,0002.14
2023-02-16 05:50:00,,0825.6,5.06,0.00,22.9,23.0,00.0,31.6,24.9,07.5,0000.0,0002.52,0003.36,0002.16
2023-02-16 05:51:00,,0825.6,5.00,0.00,22.9,22.5,00.0,31.6,24.7,07.5,0000.0,0002.52,0003.36,0002.16
2023-02-16 05:52:00,,0825.6,4.97,0.00,22.8,21.9,00.0,31.6,24.6,07.5,0000.0,0002.49,0003.26,0002.15
2023-02-16 05:53:00,,0825.8,5.01,0.00,22.8,21.5,00.0,31.6,24.5,07.5,0000.0,0002.46,0003.25,0002.13
2023-02-16 05:54:00,,0825.6,4.99,0.00,22.8,21.2,00.0,31.6,24.4,07.5,0000.0,0002.45,0003.29,0002.11
2023-02-16 05:55:00,,0825.6,5.00,0.00,22.7,21.0,00.0,31.6,24.3,07.5,0000.0,0002.48,0003.37,0002.11
2023-02-16 05:56:00,,0825.6,5.00,0.00,22.7,20.8,00.0,31.6,24.2,07.6,0000.0,0002.50,0003.45,0002.09
2023-02-16 05:57:00,,0825.6,5.01,0.00,22.6,20.7,00.0,31.6,24.2,07.6,0000.0,0002.53,0003.53,0002.10
2023-02-16 05:58:00,,0825.6,4.98,0.00,22.6,20.6,00.0,31.6,24.2,07.6,0000.0,0002.56,0003.60,0002.11
2023-02-16 05:59:00,,0825.6,4.98,0.00,22.5,20.6,00.0,31.5,24.2,07.6,0000.0,0002.54,0003.51,0002.12
